Location: Austin
(30.3000°N, 97.7500°W)
Time: 01:57:44
(UTC-05:00)

Skynet4D Del rocket - Pass Details

Date: 15 May 2024
Orbit: 763 x 1289 km, 26.9° (Epoch: 19 May)

Event Time Altitude Azimuth Distance (km) Brightness Sun altitude
Rises 23:01:07 0° 266° (W) 3,851 7.6 -29.3°
Reaches altitude 10° 23:03:45 10° 264° (W) 2,969 6.9 -29.6°
Enters shadow 23:10:53 68° 197° (SSW) 1,280 4.3 -30.6°
